Wind_Speed
8 11 12 14 16 16 17 18 20 20 20 19 18 17 13 10 11 13 15 18 21 23 25 27 28 29 30 31 32 32 33 34 34 35 35 36 36 37 37 38 39 39 38 38
7 9 10 12 13 14 15 16 18 19 20 18 17 16 16 15 15 15 16 18 21 23 25 27 28 29 30 31 32 33 33 34 34 35 35 35 36 36 36 36 37 37 36 36
5 6 7 10 10 11 13 15 16 18 18 18 17 17 17 17 17 18 19 20 22 24 25 26 26 28 28 29 30 31 31 32 32 33 32 33 33 33 33 34 34 34 33 34
2 4 4 4 6 8 10 12 13 15 16 16 17 17 17 18 18 18 18 19 20 22 22 23 24 24 25 27 28 28 28 29 29 30 30 31 31 31 31 31 31 30 31 31
2 1 1 3 5 8 9 11 12 14 15 15 15 16 16 16 16 17 17 18 19 20 20 21 22 23 25 25 25 26 26 26 27 27 28 28 28 28 28 27 27 28 28 29
5 5 4 6 7 8 9 11 11 11 12 12 13 13 13 14 14 15 16 17 17 19 19 20 20 21 23 23 24 24 25 25 25 25 25 25 25 24 24 24 25 25 25 25
7 7 7 8 9 9 10 11 11 11 11 11 11 11 11 11 12 13 14 15 16 17 17 18 19 19 21 21 22 22 23 23 23 22 22 22 22 22 22 22 22 21 21 21
8 8 9 10 10 10 10 11 11 10 9 8 9 9 9 9 9 10 12 12 14 15 15 16 16 17 17 18 18 19 20 20 20 20 20 20 19 19 19 19 19 19 19 18
10 10 10 11 11 11 11 11 10 9 8 8 8 8 7 7 7 8 9 10 11 11 12 13 13 14 14 15 16 17 17 18 18 18 18 18 18 18 18 17 17 17 16 16
10 11 12 12 11 11 11 11 10 9 8 8 7 7 7 7 7 7 7 8 8 9 11 11 12 13 14 15 15 16 17 17 17 17 16 16 16 16 16 15 15 14 14 14
11 12 13 13 13 13 12 12 11 10 9 8 8 7 7 7 7 6 6 7 8 9 10 10 11 12 13 14 15 16 16 16 16 16 16 15 15 14 14 13 13 13 13 12
11 12 14 14 14 14 14 13 12 11 10 9 8 8 7 7 7 6 7 7 7 8 9 10 11 12 13 14 15 15 14 14 15 14 14 13 13 13 12 12 11 11 11 10
11 13 14 15 15 15 15 14 13 12 11 10 10 9 9 9 8 8 8 8 8 9 9 9 10 12 13 13 13 13 13 12 12 11 11 11 10 10 10 9 9 9 8 8
11 13 14 15 16 16 16 15 14 14 13 12 11 11 11 10 10 9 9 9 9 9 9 10 11 12 12 11 11 10 10 10 9 9 9 9 8 8 7 7 7 7 6 6
11 13 14 15 16 17 17 16 16 15 14 13 13 12 12 12 11 11 11 11 11 11 11 11 10 10 10 9 8 7 7 6 6 6 6 6 7 6 6 6 6 5 5 5
11 13 14 15 16 17 17 17 17 16 15 14 14 13 13 13 13 12 12 12 12 12 12 11 11 9 8 7 7 6 5 4 4 4 4 4 4 4 4 4 4 4 4 4
10 12 13 14 15 16 17 17 17 17 16 16 15 15 15 14 14 14 14 14 14 14 14 13 12 10 8 7 6 5 4 4 3 3 3 3 3 3 3 3 3 3 3 3
10 11 13 14 15 16 17 18 18 18 18 17 17 16 16 16 16 16 16 16 16 16 16 15 14 11 9 8 7 6 5 4 3 3 3 3 2 2 2 2 2 3 2 3
8 10 12 14 15 16 17 17 18 18 18 18 18 17 17 17 17 17 17 18 18 18 18 17 16 14 12 9 8 6 5 4 3 3 3 2 2 2 2 2 2 3 3 3
7 9 11 13 15 16 17 17 18 18 18 19 18 18 18 17 17 18 18 19 19 19 18 18 18 17 15 13 10 8 6 4 4 3 3 2 2 2 2 2 2 3 3 3
6 8 10 12 14 16 16 17 18 18 18 18 18 18 18 18 18 18 19 19 20 20 19 19 19 18 17 15 13 11 9 7 5 4 4 3 3 3 3 3 3 3 3 3
4 7 9 11 13 15 16 17 17 18 18 18 18 18 18 18 19 19 19 19 20 21 21 20 19 19 18 16 15 14 12 9 7 7 6 5 5 5 5 4 4 4 4 4
2 5 8 10 12 14 15 16 16 17 18 18 18 18 18 18 18 19 19 19 20 21 21 21 20 20 19 18 17 16 14 12 11 9 8 7 7 6 6 6 5 5 5 5
2 4 7 9 11 12 13 15 15 16 16 17 17 18 18 18 18 18 18 18 19 20 21 21 21 21 20 20 19 18 16 14 13 11 10 9 9 8 8 7 7 7 6 6
4 5 7 9 10 11 12 13 14 15 15 16 16 16 17 17 17 17 17 18 18 19 20 21 21 21 20 20 19 18 18 17 16 14 12 11 10 9 9 8 8 8 8 8
7 7 8 9 10 11 11 12 13 14 14 14 15 15 15 16 16 16 16 16 17 18 18 19 19 19 20 20 19 19 19 18 17 15 14 13 11 10 10 9 9 9 9 8
10 10 10 10 10 11 11 12 12 13 13 13 13 14 14 14 15 15 15 15 16 16 16 17 17 18 18 18 18 19 19 18 17 15 14 13 12 11 11 10 9 9 9 9
Wind_Direction
219 219 220 224 228 236 242 250 258 267 277 281 282 286 289 275 261 254 252 251 250 252 254 256 258 260 262 264 266 268 270 272 274 276 278 279 281 283 284 286 288 289 291 292
218 221 223 233 239 244 250 257 262 267 274 276 279 278 279 278 276 268 260 257 255 256 257 258 259 262 264 265 267 269 271 274 276 277 279 281 282 284 285 287 288 289 291 292
208 219 228 244 251 258 257 261 268 272 273 274 276 276 277 276 274 272 267 260 257 258 258 259 262 265 266 267 269 271 272 275 276 277 279 280 282 283 285 287 288 290 291 292
207 209 230 262 265 278 278 283 283 281 282 282 280 278 275 276 274 268 267 266 261 259 258 260 262 265 267 269 270 272 274 275 277 278 279 281 282 283 285 287 289 290 291 293
65 9 319 310 307 306 302 301 298 293 290 291 286 283 279 277 273 267 265 263 264 263 263 263 264 267 270 272 273 274 276 278 279 280 281 282 282 284 285 287 289 291 292 294
37 28 20 352 335 324 317 314 309 303 301 299 294 291 286 279 271 267 265 267 267 267 267 269 270 270 271 272 273 276 277 278 279 279 280 282 283 284 285 286 288 290 292 294
36 23 10 355 345 336 331 328 321 316 311 307 304 301 293 284 273 268 269 269 268 270 273 273 273 272 273 273 274 276 277 278 279 279 280 281 282 283 284 287 289 291 293 295
36 24 11 1 356 351 343 336 333 330 327 321 313 307 302 293 283 276 275 272 272 272 272 273 273 274 275 276 277 277 277 278 280 281 282 283 283 284 286 287 289 290 292 295
37 27 16 10 6 1 355 349 345 340 338 334 326 318 312 306 294 287 284 282 278 275 275 275 275 276 277 279 280 280 280 281 282 282 282 282 282 283 286 287 288 290 293 297
35 27 20 17 14 10 6 3 360 355 348 344 341 336 330 321 311 303 298 293 288 286 282 278 276 277 279 281 283 284 283 282 281 281 280 280 280 282 285 288 291 293 296 299
34 28 24 22 19 16 13 11 9 4 359 353 347 344 341 340 335 322 310 304 298 293 287 282 281 282 284 286 288 287 285 283 281 279 278 278 279 282 284 289 294 297 299 299
36 30 26 25 23 21 20 18 17 14 10 7 5 3 358 353 348 339 332 324 315 309 302 294 293 293 292 291 290 288 286 284 282 281 279 277 278 280 284 288 293 298 300 302
38 32 29 27 27 26 24 22 22 21 20 20 20 17 15 10 5 358 350 344 336 328 320 310 304 302 301 298 294 290 288 287 284 283 281 279 280 283 287 291 296 300 303 306
38 34 31 29 29 29 28 28 28 28 27 26 23 19 17 15 12 7 2 356 350 342 333 325 317 312 311 309 304 299 295 291 285 281 279 278 281 284 288 293 297 301 304 308
39 35 32 30 30 30 30 30 30 30 29 26 23 21 20 19 17 13 8 3 359 353 347 340 332 325 320 319 317 315 311 304 294 286 279 276 278 279 284 290 297 303 306 310
40 36 33 31 31 30 30 30 30 30 29 27 25 25 24 22 19 16 13 10 7 4 359 353 347 342 339 335 332 331 327 323 318 307 294 284 280 280 284 291 300 305 309 315
40 36 33 32 31 30 30 30 31 31 30 29 29 30 28 25 24 22 20 17 14 11 9 6 3 360 358 355 351 347 346 345 340 329 317 305 299 299 302 303 312 317 318 324
41 36 33 32 31 31 30 30 31 31 32 32 33 32 31 29 29 27 24 21 18 17 16 14 12 10 7 1 354 349 348 352 347 336 329 321 315 318 326 332 340 347 346 344
42 37 34 32 31 31 30 30 30 31 32 33 33 33 32 32 31 29 27 25 23 22 22 22 22 21 20 17 11 5 357 350 343 339 333 322 317 331 341 348 357 2 359 357
44 38 34 32 30 30 30 30 30 30 31 32 33 33 33 33 33 32 30 28 27 26 26 28 28 28 29 29 27 23 19 11 3 359 357 359 5 9 10 14 17 13 11 11
43 35 32 29 28 28 28 28 28 29 29 30 31 32 33 33 34 33 32 31 30 30 31 32 31 31 32 32 33 34 34 32 29 30 33 37 38 38 40 42 39 33 29 25
39 30 26 24 23 24 25 25 26 27 27 29 30 31 32 33 34 34 33 32 32 33 34 34 33 33 34 35 37 38 37 38 43 48 51 52 51 52 54 55 52 47 43 41
19 17 16 16 16 17 19 21 22 24 25 26 27 29 31 32 33 34 34 34 33 34 35 36 36 36 36 37 38 39 39 41 47 51 54 56 54 55 57 57 56 53 51 47
316 348 357 2 6 10 12 15 17 19 21 23 24 26 28 29 31 32 33 34 34 35 36 37 37 37 38 39 40 41 42 45 48 52 56 57 57 58 59 59 59 57 54 53
281 313 332 343 351 358 3 6 9 12 15 18 20 22 24 26 28 30 31 32 34 35 36 36 36 37 39 40 41 43 45 47 50 52 53 55 56 57 58 59 59 60 59 60
273 293 310 324 335 343 350 355 359 3 7 11 13 15 18 21 24 26 28 29 32 34 35 35 36 37 39 41 42 43 44 46 47 49 51 53 54 55 57 59 61 61 59 58
269 283 296 308 319 328 336 343 347 352 357 1 5 8 10 14 18 21 23 25 28 30 31 32 33 35 37 39 40 41 43 44 44 45 47 49 50 53 55 57 59 59 56 55
Height
5746 5746 5747 5748 5749 5749 5750 5751 5752 5752 5752 5753 5752 5752 5752 5752 5753 5754 5756 5758 5759 5761 5762 5763 5763 5764 5765 5765 5765 5766 5766 5766 5765 5765 5764 5763 5762 5761 5759 5757 5755 5753 5751 5748
5744 5745 5745 5746 5747 5747 5748 5748 5748 5748 5748 5748 5748 5748 5749 5749 5749 5750 5752 5753 5754 5754 5755 5755 5756 5756 5757 5757 5758 5758 5757 5757 5757 5756 5755 5754 5753 5751 5749 5748 5746 5744 5742 5739
5743 5744 5745 5745 5745 5745 5745 5745 5745 5744 5745 5744 5744 5744 5744 5744 5744 5745 5746 5747 5747 5747 5747 5748 5748 5749 5749 5749 5749 5749 5749 5748 5748 5747 5746 5745 5744 5742 5740 5738 5737 5734 5732 5730
5743 5744 5744 5745 5743 5743 5742 5741 5741 5740 5739 5739 5739 5739 5739 5739 5739 5739 5739 5740 5740 5741 5741 5741 5741 5741 5741 5741 5741 5741 5741 5740 5740 5739 5738 5737 5735 5733 5732 5730 5728 5726 5723 5721
5743 5743 5742 5743 5741 5740 5739 5738 5737 5735 5735 5734 5733 5733 5733 5734 5734 5734 5734 5734 5734 5734 5734 5735 5734 5735 5735 5734 5734 5734 5733 5733 5732 5731 5730 5728 5727 5725 5724 5722 5720 5718 5715 5713
5743 5742 5742 5742 5740 5738 5738 5736 5734 5733 5731 5730 5730 5730 5730 5729 5729 5729 5729 5729 5729 5729 5728 5728 5728 5728 5728 5728 5727 5727 5726 5725 5724 5723 5722 5721 5720 5718 5717 5715 5713 5711 5708 5706
5743 5742 5741 5740 5738 5737 5736 5735 5732 5730 5728 5727 5726 5726 5726 5724 5724 5724 5724 5724 5724 5723 5723 5723 5723 5722 5722 5721 5721 5720 5720 5719 5718 5716 5715 5714 5713 5712 5710 5708 5706 5704 5702 5700
5743 5742 5742 5738 5736 5735 5734 5731 5729 5727 5725 5724 5723 5722 5722 5721 5720 5720 5719 5719 5719 5719 5718 5718 5717 5717 5716 5716 5715 5714 5713 5713 5711 5710 5709 5708 5707 5706 5704 5702 5700 5699 5697 5694
5744 5744 5741 5738 5736 5734 5732 5730 5728 5726 5724 5723 5722 5720 5719 5718 5718 5717 5716 5716 5715 5714 5714 5713 5713 5712 5711 5711 5710 5709 5708 5707 5706 5705 5703 5702 5701 5700 5699 5697 5695 5694 5692 5690
5744 5742 5740 5738 5736 5733 5731 5729 5727 5725 5723 5722 5720 5719 5718 5717 5715 5714 5713 5712 5712 5711 5710 5709 5709 5708 5707 5706 5705 5704 5703 5702 5701 5699 5698 5697 5696 5695 5694 5693 5691 5689 5688 5686
5744 5743 5740 5738 5736 5733 5731 5729 5726 5724 5722 5721 5719 5718 5716 5715 5714 5712 5711 5710 5709 5708 5707 5706 5705 5704 5703 5701 5700 5699 5697 5696 5695 5694 5693 5692 5691 5690 5689 5688 5687 5686 5684 5682
5746 5744 5742 5739 5736 5734 5731 5729 5726 5724 5722 5720 5718 5717 5715 5714 5712 5711 5709 5708 5706 5705 5703 5702 5701 5700 5698 5697 5695 5694 5692 5691 5690 5688 5687 5687 5686 5686 5685 5684 5683 5682 5680 5679
5747 5745 5743 5740 5737 5735 5732 5729 5727 5725 5722 5720 5718 5716 5715 5713 5711 5709 5707 5705 5704 5702 5700 5699 5697 5695 5693 5692 5690 5688 5687 5686 5685 5684 5683 5683 5683 5682 5682 5681 5680 5679 5678 5676
5748 5746 5744 5741 5739 5736 5733 5731 5728 5726 5723 5721 5719 5717 5715 5712 5710 5708 5706 5704 5702 5699 5697 5695 5693 5691 5689 5687 5686 5684 5683 5682 5681 5681 5680 5680 5679 5679 5679 5678 5678 5677 5676 5674
5748 5747 5745 5743 5740 5737 5735 5732 5729 5727 5724 5722 5719 5717 5715 5712 5710 5708 5706 5703 5700 5698 5695 5693 5690 5688 5686 5684 5683 5681 5680 5679 5678 5678 5677 5677 5677 5677 5676 5676 5675 5675 5674 5673
5749 5748 5746 5744 5742 5739 5736 5734 5731 5728 5725 5723 5720 5718 5715 5713 5710 5708 5705 5703 5700 5697 5694 5691 5688 5686 5683 5682 5681 5679 5678 5677 5677 5676 5676 5675 5675 5675 5675 5674 5674 5673 5672 5672
5751 5749 5747 5746 5743 5741 5738 5735 5733 5730 5727 5724 5721 5719 5716 5713 5711 5708 5705 5703 5699 5696 5693 5690 5687 5684 5682 5681 5679 5678 5677 5677 5676 5675 5675 5674 5674 5674 5673 5673 5672 5672 5671 5670
5752 5751 5749 5747 5745 5743 5740 5737 5734 5731 5729 5726 5723 5720 5717 5714 5712 5709 5706 5703 5700 5696 5693 5689 5686 5684 5682 5680 5679 5677 5676 5676 5675 5675 5674 5674 5673 5673 5673 5672 5671 5671 5670 5670
5753 5752 5750 5749 5747 5744 5742 5739 5736 5733 5731 5728 5725 5722 5719 5716 5713 5710 5707 5704 5701 5697 5694 5690 5687 5684 5682 5680 5678 5677 5676 5675 5675 5674 5674 5673 5673 5672 5672 5672 5671 5670 5670 5669
5753 5752 5751 5750 5748 5746 5744 5741 5738 5735 5733 5730 5727 5724 5721 5718 5715 5712 5709 5706 5703 5699 5696 5692 5689 5686 5683 5681 5679 5677 5676 5675 5674 5674 5673 5673 5672 5672 5672 5671 5671 5670 5670 5669
5753 5753 5752 5751 5749 5747 5745 5743 5740 5737 5735 5732 5729 5726 5723 5720 5717 5714 5711 5708 5705 5701 5698 5695 5692 5688 5685 5683 5681 5678 5677 5675 5675 5674 5673 5673 5673 5672 5672 5671 5671 5671 5670 5669
5754 5753 5753 5752 5750 5749 5746 5744 5742 5739 5736 5734 5731 5728 5725 5722 5720 5717 5714 5711 5708 5704 5701 5697 5694 5691 5688 5686 5683 5681 5679 5677 5676 5675 5674 5674 5674 5673 5673 5672 5672 5671 5671 5670
5753 5753 5753 5752 5751 5749 5747 5745 5743 5741 5738 5736 5733 5730 5728 5725 5722 5719 5717 5714 5711 5707 5704 5701 5698 5695 5692 5689 5686 5683 5681 5679 5678 5677 5676 5675 5675 5674 5674 5674 5673 5672 5672 5671
5753 5753 5752 5752 5751 5750 5748 5746 5744 5742 5740 5737 5735 5732 5730 5727 5724 5722 5719 5717 5714 5710 5707 5704 5701 5698 5695 5692 5689 5687 5685 5682 5680 5679 5679 5678 5677 5677 5676 5675 5675 5674 5673 5673
5751 5752 5752 5751 5750 5749 5748 5747 5745 5743 5741 5739 5736 5734 5732 5729 5727 5724 5722 5719 5716 5713 5711 5708 5705 5702 5699 5696 5693 5691 5689 5686 5684 5683 5682 5681 5680 5679 5678 5678 5677 5676 5675 5675
5749 5750 5750 5750 5750 5749 5748 5746 5745 5743 5742 5740 5738 5735 5733 5731 5728 5726 5724 5721 5719 5716 5714 5711 5708 5706 5703 5700 5698 5695 5693 5690 5688 5687 5686 5684 5683 5682 5681 5680 5679 5679 5678 5677
5747 5748 5748 5748 5748 5747 5747 5746 5744 5743 5742 5740 5738 5736 5734 5732 5730 5728 5726 5723 5721 5718 5716 5714 5711 5709 5706 5704 5701 5699 5696 5694 5692 5691 5689 5688 5687 5685 5684 5683 5682 5681 5680 5679